Meteo pe oră la Bolshoe Darino

Astăzi, 6 Mai, Joi

Timp Temperatura Precipitaţii Vânt Presiune Umiditate
00:00 +10°C° 0 mm 4 m/s 746 mmHg 84%
01:00 +9°C° 0 mm 3 m/s 747 mmHg 86%
02:00 +8°C° 0 mm 3 m/s 747 mmHg 88%
03:00 +8°C° 0 mm 2 m/s 747 mmHg 90%
04:00 +8°C° 0 mm 3 m/s 747 mmHg 88%
05:00 +8°C° 0 mm 3 m/s 746 mmHg 85%
06:00 +8°C° 0 mm 3 m/s 746 mmHg 83%
07:00 +10°C° 0 mm 3 m/s 746 mmHg 79%
08:00 +11°C° 0 mm 4 m/s 746 mmHg 74%
09:00 +13°C° 0 mm 4 m/s 746 mmHg 70%
10:00 +14°C° 0 mm 5 m/s 746 mmHg 67%
11:00 +15°C° 0 mm 5 m/s 746 mmHg 64%
12:00 +16°C° 0 mm 5 m/s 746 mmHg 60%
13:00 +15°C° 0.3 mm 6 m/s 746 mmHg 62%
14:00 +15°C° 0.3 mm 6 m/s 746 mmHg 63%
15:00 +15°C° 0.3 mm 7 m/s 745 mmHg 64%
16:00 +15°C° 0.1 mm 7 m/s 745 mmHg 64%
17:00 +14°C° 0.1 mm 7 m/s 745 mmHg 64%
18:00 +14°C° 0.1 mm 7 m/s 745 mmHg 63%
19:00 +13°C° 0.2 mm 6 m/s 745 mmHg 70%
20:00 +12°C° 0.2 mm 5 m/s 745 mmHg 77%
21:00 +10°C° 0.2 mm 4 m/s 746 mmHg 83%
22:00 +10°C° 0.5 mm 4 m/s 746 mmHg 86%
23:00 +10°C° 0.5 mm 4 m/s 746 mmHg 89%

Mâine, 7 Mai, Vineri

Timp Temperatura Precipitaţii Vânt Presiune Umiditate
00:00 +9°C° 0.5 mm 3 m/s 746 mmHg 92%
01:00 +9°C° 0.2 mm 3 m/s 746 mmHg 92%
02:00 +8°C° 0.2 mm 2 m/s 747 mmHg 93%
03:00 +7°C° 0.2 mm 2 m/s 747 mmHg 93%
04:00 +7°C° 0 mm 2 m/s 747 mmHg 93%
05:00 +7°C° 0 mm 2 m/s 747 mmHg 93%
06:00 +7°C° 0 mm 2 m/s 748 mmHg 93%
07:00 +8°C° 0 mm 2 m/s 748 mmHg 84%
08:00 +9°C° 0 mm 3 m/s 748 mmHg 76%
09:00 +10°C° 0 mm 3 m/s 749 mmHg 68%
10:00 +11°C° 0 mm 3 m/s 749 mmHg 58%
11:00 +12°C° 0 mm 3 m/s 749 mmHg 49%
12:00 +14°C° 0 mm 4 m/s 749 mmHg 40%
13:00 +14°C° 0 mm 4 m/s 749 mmHg 38%
14:00 +14°C° 0 mm 4 m/s 750 mmHg 37%
15:00 +15°C° 0 mm 4 m/s 750 mmHg 36%
16:00 +14°C° 0 mm 3 m/s 750 mmHg 39%
17:00 +14°C° 0 mm 3 m/s 750 mmHg 43%
18:00 +15°C° 0 mm 2 m/s 750 mmHg 46%
19:00 +13°C° 0 mm 2 m/s 750 mmHg 54%
20:00 +10°C° 0 mm 2 m/s 750 mmHg 61%
21:00 +8°C° 0 mm 2 m/s 751 mmHg 68%
22:00 +8°C° 0 mm 2 m/s 751 mmHg 68%
23:00 +7°C° 0 mm 2 m/s 750 mmHg 69%

Poimâine, 8 Mai, Sâmbătă

Timp Temperatura Precipitaţii Vânt Presiune Umiditate
00:00 +7°C° 0 mm 2 m/s 750 mmHg 70%
01:00 +7°C° 0 mm 2 m/s 750 mmHg 71%
02:00 +5°C° 0 mm 3 m/s 750 mmHg 72%
03:00 +5°C° 0 mm 3 m/s 750 mmHg 73%
04:00 +5°C° 0 mm 3 m/s 750 mmHg 72%
05:00 +6°C° 0 mm 4 m/s 749 mmHg 70%
06:00 +6°C° 0 mm 4 m/s 749 mmHg 69%
07:00 +8°C° 0 mm 5 m/s 748 mmHg 66%
08:00 +10°C° 0 mm 5 m/s 748 mmHg 64%
09:00 +11°C° 0 mm 6 m/s 747 mmHg 62%
10:00 +11°C° 0.2 mm 6 m/s 747 mmHg 66%
11:00 +10°C° 0.2 mm 6 m/s 746 mmHg 70%
12:00 +9°C° 0.2 mm 7 m/s 746 mmHg 74%
13:00 +9°C° 0.4 mm 6 m/s 745 mmHg 78%
14:00 +9°C° 0.4 mm 6 m/s 745 mmHg 83%
15:00 +9°C° 0.4 mm 6 m/s 744 mmHg 87%
16:00 +9°C° 1.2 mm 6 m/s 744 mmHg 90%
17:00 +10°C° 1.2 mm 5 m/s 743 mmHg 93%
18:00 +10°C° 1.2 mm 5 m/s 743 mmHg 95%
19:00 +10°C° 1.1 mm 4 m/s 743 mmHg 95%
20:00 +10°C° 1.1 mm 4 m/s 743 mmHg 94%
21:00 +9°C° 1.1 mm 3 m/s 743 mmHg 94%
22:00 +7°C° 0.1 mm 4 m/s 743 mmHg 92%
23:00 +6°C° 0.1 mm 4 m/s 744 mmHg 90%

9 Mai, Duminică

Timp Temperatura Precipitaţii Vânt Presiune Umiditate
00:00 +5°C° 0.1 mm 4 m/s 744 mmHg 88%
01:00 +5°C° 0 mm 4 m/s 745 mmHg 89%
02:00 +4°C° 0 mm 4 m/s 745 mmHg 89%
03:00 +4°C° 0 mm 4 m/s 746 mmHg 90%
04:00 +4°C° 0 mm 4 m/s 746 mmHg 88%
05:00 +4°C° 0 mm 4 m/s 747 mmHg 86%
06:00 +4°C° 0 mm 4 m/s 747 mmHg 84%
07:00 +5°C° 0 mm 4 m/s 748 mmHg 79%
08:00 +5°C° 0 mm 4 m/s 748 mmHg 75%
09:00 +6°C° 0 mm 5 m/s 749 mmHg 70%
10:00 +7°C° 0 mm 4 m/s 749 mmHg 66%
11:00 +7°C° 0 mm 4 m/s 750 mmHg 62%
12:00 +9°C° 0 mm 3 m/s 751 mmHg 58%
13:00 +10°C° 0 mm 3 m/s 751 mmHg 54%
14:00 +11°C° 0 mm 3 m/s 751 mmHg 51%
15:00 +12°C° 0 mm 3 m/s 751 mmHg 47%
16:00 +11°C° 0 mm 3 m/s 752 mmHg 50%
17:00 +11°C° 0 mm 3 m/s 753 mmHg 52%
18:00 +11°C° 0 mm 3 m/s 753 mmHg 55%
19:00 +9°C° 0 mm 2 m/s 754 mmHg 62%
20:00 +8°C° 0 mm 2 m/s 755 mmHg 69%
21:00 +7°C° 0 mm 1 m/s 755 mmHg 76%
22:00 +5°C° 0 mm 2 m/s 756 mmHg 78%
23:00 +5°C° 0 mm 2 m/s 756 mmHg 80%

10 Mai, Luni

Timp Temperatura Precipitaţii Vânt Presiune Umiditate
00:00 +4°C° 0 mm 2 m/s 757 mmHg 83%
01:00 +4°C° 0 mm 2 m/s 757 mmHg 84%
02:00 +3°C° 0 mm 2 m/s 758 mmHg 86%
03:00 +3°C° 0 mm 2 m/s 758 mmHg 87%
04:00 +3°C° 0 mm 2 m/s 759 mmHg 85%
05:00 +4°C° 0 mm 2 m/s 759 mmHg 82%
06:00 +4°C° 0 mm 2 m/s 760 mmHg 79%
07:00 +7°C° 0 mm 3 m/s 760 mmHg 67%
08:00 +9°C° 0 mm 3 m/s 760 mmHg 54%
09:00 +11°C° 0 mm 4 m/s 760 mmHg 41%
10:00 +12°C° 0 mm 4 m/s 760 mmHg 38%
11:00 +13°C° 0 mm 4 m/s 760 mmHg 34%
12:00 +14°C° 0 mm 4 m/s 760 mmHg 31%
13:00 +15°C° 0 mm 4 m/s 760 mmHg 31%
14:00 +15°C° 0 mm 4 m/s 760 mmHg 31%
15:00 +17°C° 0 mm 4 m/s 760 mmHg 31%
16:00 +16°C° 0 mm 3 m/s 760 mmHg 36%
17:00 +16°C° 0 mm 3 m/s 760 mmHg 41%
18:00 +14°C° 0 mm 3 m/s 760 mmHg 46%
19:00 +13°C° 0 mm 2 m/s 760 mmHg 53%
20:00 +10°C° 0 mm 2 m/s 760 mmHg 61%
21:00 +8°C° 0 mm 2 m/s 761 mmHg 69%
22:00 +7°C° 0 mm 2 m/s 761 mmHg 70%
23:00 +7°C° 0 mm 2 m/s 761 mmHg 71%

11 Mai, Marţi

Timp Temperatura Precipitaţii Vânt Presiune Umiditate
00:00 +7°C° 0 mm 2 m/s 761 mmHg 72%
01:00 +6°C° 0 mm 2 m/s 761 mmHg 74%
02:00 +6°C° 0 mm 2 m/s 761 mmHg 76%
03:00 +6°C° 0 mm 2 m/s 761 mmHg 77%
04:00 +6°C° 0 mm 2 m/s 761 mmHg 76%
05:00 +7°C° 0 mm 2 m/s 761 mmHg 75%
06:00 +7°C° 0 mm 2 m/s 761 mmHg 74%
07:00 +10°C° 0 mm 2 m/s 761 mmHg 67%
08:00 +12°C° 0 mm 3 m/s 761 mmHg 60%
09:00 +14°C° 0 mm 3 m/s 761 mmHg 54%
10:00 +17°C° 0 mm 3 m/s 760 mmHg 52%
11:00 +19°C° 0 mm 3 m/s 760 mmHg 50%
12:00 +20°C° 0 mm 3 m/s 760 mmHg 49%
13:00 +21°C° 0 mm 3 m/s 760 mmHg 49%
14:00 +22°C° 0 mm 3 m/s 760 mmHg 49%
15:00 +24°C° 0 mm 3 m/s 759 mmHg 49%
16:00 +22°C° 0 mm 3 m/s 759 mmHg 53%
17:00 +23°C° 0 mm 2 m/s 759 mmHg 58%
18:00 +21°C° 0 mm 2 m/s 759 mmHg 62%
19:00 +19°C° 0 mm 2 m/s 759 mmHg 71%
20:00 +17°C° 0 mm 2 m/s 759 mmHg 80%
21:00 +15°C° 0 mm 2 m/s 759 mmHg 89%
22:00 +15°C° 0 mm 2 m/s 759 mmHg 91%
23:00 +14°C° 0 mm 2 m/s 759 mmHg 93%
Arată mai mult

Formular de consimțământ

Meteoprog și furnizorii noștri de servicii pot stoca și accesa date personale, precum cookies, identificatori de dispozitiv sau alte tehnologii similare pe dispozitivul dumneavoastră și procesa astfel de date pentru a personaliza conținutul și reclamele, dar și pentru a oferi caracteristici de social media și pentru a analiza traficul.

  • Stocarea și/sau accesarea informațiilor pe dispozitivul dumneavoastră

    Cookies, identificatori de dispozitiv sau alte informații pot fi stocate sau accesate pe dispozitiv în scopurile indicate mai sus.

  • Reclame și conținut personalizat, evaluarea reclamelor și a conținutului, informații despre audiențe și dezvoltarea produselor

    Reclamele și conținutul pot fi personalizate pe baza unui profil. Pot fi adăugate date suplimentare pentru a personaliza mai bine reclamele și conținutul. Performanța reclamelor și conținutului poate fi măsurată. Pot fi obținute informații despre utilizatorii care au văzut reclamele și conținutul. Aceste date pot fi utilizate pentru a dezvolta sau îmbunătăți experiența utilizatorilor, sistemele și software-ul.

Dând clic pe ‘Sunt de acord’, permiteți utilizarea cookie-urilor menționate, a identificatorilor de dispozitiv, balizelor web sau altor tehnologii similare. Setările pot fi modificate din browser-ul dispozitivului dumneavoastră.

În anumite scopuri, interesele legitime pot prima asupra consimțământului. Puteți citi mai multe informații în acest sens în Politica privind Confidențialitatea Datelor și Cookie.